Location: Artiguedieu
(43.5000°N, 0.5454°E)
Time: 13:41:27
(UTC+00:00)

SR - Pass Details

Date: 09 August 2021
Orbit: 581 x 874 km, 66.7° (Epoch: 18 September)

Event Time Altitude Azimuth Distance (km) Brightness Sun altitude
Exits shadow 03:54:17 - 202° (SSW) 2,666 ? -10.7°
Reaches altitude 10° 03:54:45 10° 202° (SSW) 2,487 ? -10.6°
Maximum altitude 04:00:31 74° 119° (ESE) 865 ? -9.7°
Drops below altitude 10° 04:05:58 10° 35° (NE) 2,355 ? -8.9°
Sets 04:08:18 0° 34° (NNE) 3,243 ? -8.5°
